Fort Atkinson, Wisconsin, United States (53538)
Lat: 42.93N, Lon: 88.84W
Wx Zone: WIZ064
Local Info
Past Weather Observations for Today

NOTE: This archive is for the closest National Weather Service station to Fort Atkinson. Information may differ from the station used for current weather conditions.

Click here for Long-term Archive

Time Weather Temperature Dewpoint Humidity Pressure Winds Precip Visibility
10:55
Overcast
50°F / 10°C 37°F / 3°C 62% 29.8 in
(1009 mb)
N 11.5 mph
(N 19 kph)
- 10SM
10:35
Overcast
48°F / 9°C 37°F / 3°C 66% 29.8 in
(1009 mb)
NNW 15 mph
(NNW 24 kph)
- 10SM
10:15
Overcast
48°F / 9°C 37°F / 3°C 66% 29.8 in
(1009 mb)
N 10.4 mph
(N 17 kph)
- 10SM
09:55
Overcast
46°F / 8°C 37°F / 3°C 71% 29.8 in
(1009 mb)
N 13.8 mph
(N 22 kph)
- 10SM
09:35
Overcast
46°F / 8°C 37°F / 3°C 71% 29.8 in
(1009 mb)
N 13.8 mph
(N 22 kph)
- 10SM
09:15
Overcast
46°F / 8°C 37°F / 3°C 71% 29.8 in
(1009 mb)
N 18.4 mph
(N 30 kph)
- 10SM
08:55
Overcast
46°F / 8°C 37°F / 3°C 71% 29.8 in
(1009 mb)
N 15 mph
(N 24 kph)
- 10SM
08:35
Overcast
45°F / 7°C 37°F / 3°C 76% 29.8 in
(1009 mb)
N 10.4 mph
(N 17 kph)
- 10SM
08:15
Overcast
45°F / 7°C 37°F / 3°C 76% 29.8 in
(1009 mb)
N 12.7 mph
(N 20 kph)
- 10SM
07:55
Overcast
45°F / 7°C 37°F / 3°C 76% 29.8 in
(1009 mb)
N 15 mph
(N 24 kph)
- 10SM
07:35
Overcast
45°F / 7°C 39°F / 4°C 81% 29.77 in
(1008 mb)
N 13.8 mph
(N 22 kph)
- 10SM
07:15
Overcast
43°F / 6°C 37°F / 3°C 81% 29.77 in
(1008 mb)
N 13.8 mph
(N 22 kph)
- 10SM
06:55
Overcast
43°F / 6°C 39°F / 4°C 87% 29.77 in
(1008 mb)
N 15 mph
(N 24 kph)
- 10SM
06:35
Mostly Cloudy
43°F / 6°C 39°F / 4°C 87% 29.77 in
(1008 mb)
NNW 13.8 mph
(NNW 22 kph)
- 10SM
06:15
Mostly Cloudy
43°F / 6°C 39°F / 4°C 87% 29.77 in
(1008 mb)
N 13.8 mph
(N 22 kph)
- 10SM
05:55
Mostly Cloudy
43°F / 6°C 39°F / 4°C 87% 29.77 in
(1008 mb)
N 16.1 mph
(N 26 kph)
- 10SM
05:35
Partly Cloudy
43°F / 6°C 39°F / 4°C 87% 29.74 in
(1007 mb)
N 15 mph
(N 24 kph)
- 10SM
05:15
Mostly Cloudy
43°F / 6°C 41°F / 5°C 93% 29.74 in
(1007 mb)
N 11.5 mph
(N 19 kph)
- 10SM
04:55
Partly Cloudy
45°F / 7°C 41°F / 5°C 87% 29.74 in
(1007 mb)
N 10.4 mph
(N 17 kph)
- 10SM
04:35
Partly Cloudy
45°F / 7°C 45°F / 7°C 100% 29.74 in
(1007 mb)
N 10.4 mph
(N 17 kph)
- 10SM
04:15
Mostly Cloudy
45°F / 7°C 45°F / 7°C 100% 29.71 in
(1006 mb)
N 8.1 mph
(N 13 kph)
- 10SM
03:55
Overcast
45°F / 7°C 45°F / 7°C 100% 29.71 in
(1006 mb)
N 8.1 mph
(N 13 kph)
- 10SM
03:35
Mostly Cloudy
45°F / 7°C 45°F / 7°C 100% 29.71 in
(1006 mb)
N 6.9 mph
(N 11 kph)
- 10SM
03:15
Clear
45°F / 7°C 45°F / 7°C 100% 29.71 in
(1006 mb)
N 6.9 mph
(N 11 kph)
- 10SM
02:55
Clear
45°F / 7°C 45°F / 7°C 100% 29.68 in
(1005 mb)
N 9.2 mph
(N 15 kph)
- 10SM
02:35
Clear
45°F / 7°C 45°F / 7°C 100% 29.68 in
(1005 mb)
N 6.9 mph
(N 11 kph)
- 10SM
02:15
Partly Cloudy
45°F / 7°C 45°F / 7°C 100% 29.68 in
(1005 mb)
N 9.2 mph
(N 15 kph)
- 10SM
01:55
Clear
46°F / 8°C 46°F / 8°C 100% 29.68 in
(1005 mb)
NNW 6.9 mph
(NNW 11 kph)
- 10SM
01:35
Clear
46°F / 8°C 46°F / 8°C 100% 29.68 in
(1005 mb)
NNW 6.9 mph
(NNW 11 kph)
- 10SM
01:15
Clear
46°F / 8°C 46°F / 8°C 100% 29.65 in
(1004 mb)
NNW 6.9 mph
(NNW 11 kph)
- 10SM
00:55
Clear
46°F / 8°C 46°F / 8°C 100% 29.65 in
(1004 mb)
NNW 4.6 mph
(NNW 7 kph)
- 10SM
00:35
Clear
46°F / 8°C 46°F / 8°C 100% 29.65 in
(1004 mb)
NW 6.9 mph
(NW 11 kph)
- 10SM
00:15
Clear
46°F / 8°C 46°F / 8°C 100% 29.65 in
(1004 mb)
NW 3.5 mph
(NW 6 kph)
- 10SM
Time Weather Temperature Dewpoint Humidity Pressure Winds Precip Visibility


Weather for websites

WeatherForYou.com, LLC is not responsible for any damages or problems caused by this service. Current weather conditions are obtained from the closest station including government and personal stations which may have varying degrees of accuracy. Weather forecasts are derived from the NOAA NDFD. Like all things, this site belongs to Jesus Christ... He just trusts us to maintain it. If you have any questions or comments email webmaster@weatherforyou.com

Copyright © 2016, WeatherForYou.com LLC. All rights reserved.